CNCE5 (52768 NORAD) Tracking and Keplerian Element Data

This shows tracking and keplerian element data for the satellite.

Feedback or suggestion? Click here.




ElementValue
Catalog52768
NameCNCE5
Epoch Orbit711
Epoch Day192.7581196
Epoch Year2022
RAAN307.1401
Inclination97.517
Eccentricity0.0014267
Argument of Perigee70.6333
Mean Anonmoly289.644
Mean Motion15.13758005
Decay Rate7.196E-05
L11 52768U 22057AN 22192.75811960 .00007196 00000+0 40165-3 0 9998
L22 52768 97.5170 307.1401 0014267 70.6333 289.6440 15.13758005 7114

Live tracking and technical data element details for CNCE5 (NORAD 52768). CNCE5 can be tracked NOW for your location showing map with azimuth and elevation plus other details from your city location.

Track the satellite on the map from your city or location and see movement details for azimuth, elevation, latitude, longitude, range, height, and movement on the map or in text.







IsCatalogInMostPopularTable: catalog: 52768, numindb: 3
Update: records affected: 1



GetName: 52768 CNCE5

Hit Count: updated at: Sun, 14 Aug 2022 00:18:42 GMT